Location: Albany
(35.0170°S, 117.8920°E)
Time: 00:20:22
(UTC+08:00)

Explorer 7 - Pass Details

Date: 24 January 2021
Orbit: 484 x 677 km, 50.3° (Epoch: 01 March)

Event Time Altitude Azimuth Distance (km) Brightness Sun altitude
Rises 00:48:21 0° 249° (WSW) 2,761 - -35.3°
Reaches altitude 10° 00:51:32 10° 273° (W) 1,811 - -35.2°
Maximum altitude 00:53:45 14° 306° (NW) 1,522 - -35.1°
Drops below altitude 10° 00:55:54 10° 339° (NNW) 1,743 - -35.1°
Sets 00:58:53 0° 5° (N) 2,587 - -34.9°
